Location: Ida Center
(41.8662°N, 83.5713°W)
Time: 05:40:11
(UTC+00:00)

Cosmos 1356 Rocket - Pass Details

Date: 17 November 2019
Orbit: 544 x 598 km, 81.2° (Epoch: 05 December)

Event Time Altitude Azimuth Distance (km) Brightness Sun altitude
Rises 23:00:26 0° 187° (S) 2,755 7.2 -9.2°
Reaches altitude 10° 23:02:35 10° 187° (S) 1,872 6.4 -9.6°
Maximum altitude 23:06:43 86° 99° (E) 588 3.4 -10.4°
Drops below altitude 10° 23:10:58 10° 11° (N) 1,919 5.8 -11.1°
Sets 23:13:12 0° 11° (N) 2,832 6.7 -11.5°
